Regional Weather Roundup
Issued by NWS Jackson, KY

Home | Current Version | Previous Version | Text Only | Print | Product List | Glossary Off
Versions: 1 2 3 4 5 6 7 8 9 10 11 12 13 14 15 16 17 18 19 20 21 22 23 24 25 26 27 28 29 30 31 32 33 34 35 36 37 38 39 40 41 42 43 44 45 46 47 48 49 50

640
ASUS43 KJKL 241810
RWRJKL

EAST KENTUCKY HOURLY WEATHER ROUNDUP
NATIONAL WEATHER SERVICE JACKSON KY
200 PM EDT THU MAY 24 2018

NOTE: "FAIR" INDICATES FEW OR NO CLOUDS BELOW 12,000 FEET WITH
NO SIGNIFICANT WEATHER AND/OR OBSTRUCTIONS TO VISIBILITY.

* THESE REPORTS ARE NOT UNDER NWS QUALITY CONTROL AND MAY NOT
  REPORT WEATHER SUCH AS PRECIPITATION AND FOG.

KYZ079-080-083-085-087-088-110-112-115-119-120-241900
...EASTERN KENTUCKY...

CITY           SKY/WX    TMP DP  RH WIND       PRES   REMARKS
JACKSON          N/A     80  60  50 VRB5      30.16F
6HR MIN TEMP:  61; 6HR MAX TEMP:  80;

LONDON           N/A     81  62  52 VRB3      30.14F
6HR MIN TEMP:  65; 6HR MAX TEMP:  83;

SOMERSET*        N/A     81  57  44 MISG      30.14F
MONTICELLO*      N/A     83  66  56 N14G21    30.14F
6HR MIN TEMP:  66; 6HR MAX TEMP:  83;

WILLIAMSBURG*    N/A     82  64  54 E5        30.13F
MIDDLESBORO*     N/A     85  61  44 CALM      30.12F
6HR MIN TEMP:  61; 6HR MAX TEMP:  85;

HARLAN APT*      N/A     84  60  43 SE3       30.14F
PIKE CO APT*     N/A     79  64  59 N3        30.16F
BIG SANDY APT*   N/A     81  61  50 CALM      30.16F
6HR MIN TEMP:  60; 6HR MAX TEMP:  81;

MOREHEAD APT*    N/A     79  55  44 N6        30.17F
ASHLAND*         N/A     81  60  48 SE6       30.15F
$$

KYZ035-036-041-042-044-050-067-078-099-241900
...CENTRAL KENTUCKY...

CITY           SKY/WX    TMP DP  RH WIND       PRES   REMARKS
MT STERLING*     N/A     77  59  53 NE5       30.18F
FLEMING/MASON*   N/A     78  57  48 CALM      30.18F
DANVILLE*        N/A     79  59  50 E3        30.16F
LEXINGTON        N/A     80  60  50 NE9       30.16F
FRANKFORT        N/A     80  56  43 N3        30.15F
6HR MIN TEMP:  65; 6HR MAX TEMP:  80;

LOUISVILLE       N/A     83  51  33 VRB5      30.14F
6HR MIN TEMP:  68; 6HR MAX TEMP:  83;

LEBANON*         N/A     79  61  53 E3        30.15F
GLASGOW*         N/A     84  60  44 CALM      30.13S
BOWLING GREEN    N/A     84  64  50 CALM      30.12F
6HR MIN TEMP:  70; 6HR MAX TEMP:  85;

$$

KYZ091>093-OHZ055-061-077-WVZ005-015-034-035-042-241900
...SOUTHERN OHIO/WEST VIRGINIA...

CITY           SKY/WX    TMP DP  RH WIND       PRES   REMARKS
COVINGTON        N/A     79  55  43 NE13      30.17F
COLUMBUS         N/A     80  47  31 VRB6      30.19F
DAYTON           N/A     78  52  40 E7        30.20F
WILMINGTON       N/A     77  58  51 VRB5      30.18F
HUNTINGTON       N/A     79  59  50 CALM      30.15F
CHARLESTON       N/A     81  63  54 VRB5      30.15F
PINEVILLE*       N/A     82  60  46 MISG      30.22F
BECKLEY          N/A     76  56  49 E9        30.22F
BLUEFIELD      PTSUNNY   71  58  63 CALM      30.24F
LOGAN CO APT*    N/A     81  61  50 CALM      30.16F
$$

VAZ002-007-008-TNZ017-027-036-066-071-241900
...SOUTHWEST VIRGINIA/EAST TENNESSEE...

CITY           SKY/WX    TMP DP  RH WIND       PRES   REMARKS
WISE*          CLOUDY    79  63  57 CALM      30.21F
JONESVILLE*      N/A    N/A N/A N/A CALM      30.14F
ABINGDON*        N/A     82  65  57 E9        30.18F
BRISTOL          N/A     83  66  56 VRB3      30.14F
MORRISTOWN*    PTCLDY    82  64  54 N5        30.11F
SEVIERVILLE*   PTCLDY    84  66  54 NE6       30.09F
KNOXVILLE        N/A     86  65  49 W6        30.08F
LAFOLLETTE*    CLEAR     86  63  45 VRB3      30.15F
OAK RIDGE        N/A     87  65  47 VRB3      30.11F
CROSSVILLE       N/A     81  61  50 S5        30.15F
NASHVILLE      PTSUNNY   87  59  38 CALM      30.10F
$$

...KEY TO REMARKS...
VSB - VISIBILITY IN MILES
WCI - WIND CHILL INDEX
HX  - HEAT INDEX

$$




USA.gov is the U.S. government's official web portal to all federal, state and local government web resources and services.